[[{"header":{"parameterUnit":"m.s-1","parameterCategory":2,"la1":30.2991,"la2":30.254,"lo1":-89.0895,"lo2":-89.0444,"dy":0.0017,"dx":0.0017,"nx":28,"ny":28,"refTime":"2025-08-30T03:00:00:Z","depth":"0","parameterNumber":2,"parameterNumberName":"U-component_of_CURRENTS"},"data":[0,0,0,0,0,0,0,0,0,0,0,0,0,0,0,0,0,0,0,0,0,0,0,0,0,0,0,0,0,0,0,0,0,0,0,0,0,0,0,0,0,0,0,0,0,0,0,0,0,0,0,0,0,0,0,0,0,0,-0.2396,-0.2397,0,-0.249,-0.2491,-0.2492,-0.2488,-0.2486,-0.2485,-0.2483,-0.265,-0.2655,-0.2661,0,0,0,0,0,0,0,0,0,0,0,0,0,-0.2282,-0.2284,-0.2396,-0.2397,-0.2398,-0.249,-0.2491,-0.2493,-0.2488,-0.2486,-0.2485,-0.2483,-0.2648,-0.2655,-0.2662,0,0,0,0,0,0,0,0,0,0,0,0,0,-0.2351,-0.2284,-0.2395,-0.2405,-0.2406,-0.2489,-0.2491,-0.2493,-0.2489,-0.2486,-0.2484,-0.2482,-0.2646,-0.2654,-0.2663,-0.2764,0,0,-0.269,-0.2694,0,0,0,0,0,0,0,0,-0.2347,-0.2356,-0.2402,-0.2404,-0.2406,-0.2473,-0.2512,-0.2586,-0.2489,-0.246,-0.2483,-0.2481,-0.2598,-0.261,-0.2635,-0.2772,-0.2779,-0.2691,-0.2696,-0.27,-0.2702,0,0,0,0,0,0,0,-0.2342,-0.2352,-0.2435,-0.2404,-0.2406,-0.2428,-0.2435,-0.2526,-0.2544,-0.2462,-0.2462,-0.2469,-0.2599,-0.2627,-0.2639,-0.2781,-0.269,-0.2698,-0.2704,-0.2707,-0.2919,-0.2919,0,0,0,0,0,0,-0.2326,-0.2348,-0.2432,-0.2438,-0.2368,-0.2431,-0.2439,-0.2456,-0.2541,-0.2551,-0.2471,-0.2469,-0.2613,-0.2629,-0.2645,-0.265,-0.27,-0.2708,-0.2713,-0.2918,-0.2919,-0.2919,0,0,0,0,0,0,-0.2323,-0.2333,-0.2428,-0.2392,-0.2405,-0.2435,-0.2454,-0.2459,-0.2473,-0.2547,-0.2557,-0.2478,-0.2612,-0.2633,-0.2726,-0.2661,-0.2712,-0.272,-0.2918,-0.2918,-0.2919,-0.2737,0,0,0,0,0,0,-0.232,-0.2331,-0.2338,-0.2391,-0.2407,-0.245,-0.2456,-0.2462,-0.2481,-0.2478,-0.2558,-0.2571,-0.2611,-0.2713,-0.2735,-0.2674,-0.2727,-0.2917,-0.2918,-0.2919,-0.2743,-0.2732,-0.2722,0,0,0,0,0,-0.2315,-0.2327,-0.2339,-0.2348,-0.2415,-0.245,-0.246,-0.2475,-0.2483,-0.2482,-0.2554,-0.2567,-0.273,-0.2723,-0.2748,-0.2687,-0.2917,-0.2918,-0.2919,-0.2748,-0.2734,-0.2722,0,0,0,0,0,0,-0.2284,-0.233,-0.2342,-0.2369,-0.2395,-0.2447,-0.2456,-0.2477,-0.2535,-0.254,-0.2608,-0.2628,-0.267,-0.2738,-0.2727,-0.2755,-0.2813,-0.2818,-0.2674,-0.2662,-0.2651,-0.2625,-0.2734,0,0,0,0,0,-0.2282,-0.2299,-0.2344,-0.2363,-0.2376,-0.2421,-0.2439,-0.2452,-0.2509,-0.2529,-0.2581,-0.2647,-0.27,-0.2728,-0.2794,-0.2843,-0.2863,-0.2815,-0.2804,-0.2794,-0.2794,-0.2766,-0.275,-0.2921,-0.2921,-0.2921,0,0,-0.2276,-0.2303,-0.2313,-0.2356,-0.2384,-0.2399,-0.2426,-0.2448,-0.245,-0.2547,-0.2573,-0.2626,-0.2713,-0.2737,-0.2759,-0.2779,-0.2756,-0.2795,-0.2785,-0.2791,-0.2765,-0.2747,-0.2732,-0.2922,-0.2922,-0.2922,0,0,-0.2264,-0.2296,-0.2301,-0.2323,-0.2356,-0.2383,-0.2385,-0.243,-0.2432,-0.2487,-0.253,-0.2546,-0.2662,-0.2661,-0.2692,-0.268,-0.2707,-0.2703,-0.2617,-0.2587,-0.2571,-0.2558,-0.2543,-0.2529,-0.2687,-0.2686,-0.2686,0,-0.225,-0.2269,-0.2306,-0.2316,-0.2327,-0.237,-0.2372,-0.2392,-0.2454,-0.246,-0.2472,-0.2565,-0.2607,-0.2614,-0.2587,-0.2642,-0.2658,-0.2642,-0.2565,-0.2553,-0.2541,-0.253,-0.2517,-0.2678,-0.2679,-0.268,-0.268,0,-0.2241,-0.2255,-0.2261,-0.2284,-0.2299,-0.231,-0.2338,-0.2348,-0.2364,-0.2378,-0.2388,-0.2437,-0.2484,-0.2471,-0.2528,-0.2467,-0.2514,-0.2551,-0.2575,-0.2511,-0.2506,-0.2495,-0.2665,-0.2668,-0.2671,-0.2673,0,0,-0.2208,-0.2245,-0.2245,-0.2249,-0.2282,-0.2295,-0.2295,-0.2305,-0.2306,-0.2314,-0.2301,-0.2316,-0.2328,-0.2365,-0.2397,-0.2352,-0.2254,-0.2412,-0.2415,-0.236,-0.2207,-0.2148,-0.2132,-0.2279,-0.2277,-0.2275,-0.2225,0,-0.2184,-0.219,-0.2214,-0.2213,-0.2218,-0.225,-0.2251,-0.2263,-0.2275,-0.2275,-0.2263,-0.228,-0.2293,-0.2303,-0.2252,-0.2288,-0.2225,-0.2266,-0.2314,-0.2315,-0.2237,-0.2117,-0.2049,-0.1991,-0.2216,-0.2214,-0.2213,0,-0.2157,-0.2168,-0.216,-0.2181,-0.2186,-0.2188,-0.2198,-0.2205,-0.2213,-0.2221,-0.2208,-0.2235,-0.2188,-0.2203,-0.2156,-0.2194,-0.2179,-0.2175,-0.2174,-0.2178,-0.2236,-0.2102,-0.1965,-0.196,-0.2198,-0.2199,-0.22,0,-0.2106,-0.2126,-0.2116,-0.2124,-0.2154,-0.215,-0.2164,-0.218,-0.2186,-0.2185,-0.2192,-0.2164,-0.2159,-0.2125,-0.2118,-0.2144,-0.2065,-0.2105,-0.2025,-0.2023,-0.2003,-0.2002,-0.1833,-0.2027,-0.2027,-0.2027,-0.2027,0,-0.2067,-0.2059,-0.2092,-0.2089,-0.208,-0.2114,-0.2106,-0.2122,-0.214,-0.2138,-0.2158,-0.2148,-0.2139,-0.2112,-0.2095,-0.202,-0.2041,-0.1977,-0.1984,-0.194,-0.1934,-0.1966,-0.1998,-0.2025,-0.2026,-0.2026,-0.2026,0,-0.2003,-0.2028,-0.2021,-0.2048,-0.2054,-0.2046,-0.2076,-0.2076,-0.2107,-0.2104,-0.2104,-0.2127,-0.2087,-0.2067,-0.2019,-0.1985,-0.1888,-0.1895,-0.1846,-0.1845,-0.1752,-0.1779,-0.1648,-0.1601,-0.1785,-0.1783,-0.1781,0,-0.1966,-0.1957,-0.198,-0.1978,-0.1985,-0.199,-0.1994,-0.204,-0.2047,-0.2085,-0.2076,-0.2059,-0.202,-0.1933,-0.1866,-0.1786,-0.1799,-0.1685,-0.1688,-0.169,-0.1728,-0.175,-0.1722,-0.16,-0.1597,-0.1594,-0.1592,0,-0.189,-0.19,-0.1899,-0.19,-0.1901,-0.1906,-0.192,-0.1926,-0.1977,-0.1984,-0.198,-0.1955,-0.1885,-0.1774,-0.168,-0.1629,-0.1639,-0.1628,-0.1635,-0.1546,-0.1556,-0.1535,-0.1716,-0.1569,-0.1572,-0.1573,-0.1575,-0.1576,-0.1822,-0.1807,-0.181,-0.1799,-0.1808,-0.1798,-0.1766,-0.1802,-0.1797,-0.1783,-0.1842,-0.1786,-0.1722,-0.1573,-0.1515,-0.1408,-0.1454,-0.1378,-0.1407,-0.1426,-0.1368,-0.149,-0.1351,-0.1352,-0.1353,-0.1353,-0.1354,0,-0.1723,-0.1716,-0.1709,-0.1688,-0.1655,-0.1695,-0.1691,-0.1645,-0.1602,-0.1637,-0.1614,-0.1577,-0.1456,-0.1409,-0.13,-0.1226,-0.1201,-0.1201,-0.1228,-0.1206,-0.1309,-0.1289,-0.1122,-0.1122,-0.1122,-0.1122,-0.1122,-0.1122,-0.167,-0.1623,-0.162,-0.1528,-0.1515,-0.1429,-0.1401,-0.1363,-0.1362,-0.1318,-0.1329,-0.1372,-0.1342,-0.1359,-0.124,-0.1165,-0.1142,-0.109,-0.1113,-0.1221,-0.1241,-0.126,-0.1245,-0.1071,-0.1071,-0.0971,-0.097,-0.0969]},{"header":{"parameterUnit":"m.s-1","parameterCategory":2,"la1":30.2991,"la2":30.254,"lo1":-89.0895,"lo2":-89.0444,"dy":0.0017,"dx":0.0017,"nx":28,"ny":28,"refTime":"2025-08-30T03:00:00:Z","depth":"0","parameterNumber":3,"parameterNumberName":"V-component_of_CURRENTS"},"data":[0,0,0,0,0,0,0,0,0,0,0,0,0,0,0,0,0,0,0,0,0,0,0,0,0,0,0,0,0,0,0,0,0,0,0,0,0,0,0,0,0,0,0,0,0,0,0,0,0,0,0,0,0,0,0,0,0,0,-0.0473,-0.0473,0,-0.0384,-0.0383,-0.0382,-0.0296,-0.0295,-0.0294,-0.0294,-0.0076,-0.0071,-0.0066,0,0,0,0,0,0,0,0,0,0,0,0,0,-0.0498,-0.0498,-0.0473,-0.0473,-0.0472,-0.0385,-0.0383,-0.0381,-0.0296,-0.0295,-0.0294,-0.0293,-0.0078,-0.0072,-0.0065,0,0,0,0,0,0,0,0,0,0,0,0,0,-0.0452,-0.0498,-0.0473,-0.0422,-0.0417,-0.0385,-0.0383,-0.0381,-0.0296,-0.0295,-0.0294,-0.0293,-0.008,-0.0072,-0.0065,-0.0037,0,0,-0.0041,-0.0037,0,0,0,0,0,0,0,0,-0.0454,-0.045,-0.043,-0.0426,-0.042,-0.0354,-0.0312,-0.0261,-0.0296,-0.0337,-0.0294,-0.0293,-0.0161,-0.0146,-0.0127,-0.0027,-0.0017,-0.004,-0.0035,-0.0032,-0.003,0,0,0,0,0,0,0,-0.0458,-0.0453,-0.0433,-0.043,-0.0423,-0.038,-0.0372,-0.0302,-0.025,-0.0333,-0.0328,-0.0326,-0.0156,-0.0135,-0.0121,-0.0014,-0.004,-0.0033,-0.0029,-0.0026,0.0134,0.0133,0,0,0,0,0,0,-0.0483,-0.0457,-0.0436,-0.0431,-0.044,-0.0381,-0.0372,-0.0372,-0.0253,-0.0236,-0.0327,-0.0322,-0.0149,-0.013,-0.0113,-0.0074,-0.0032,-0.0025,-0.002,0.0134,0.0134,0.0133,0,0,0,0,0,0,-0.0484,-0.0482,-0.044,-0.0445,-0.0437,-0.0382,-0.0383,-0.0371,-0.0349,-0.0251,-0.023,-0.0317,-0.0147,-0.0124,-0.0054,-0.0065,-0.0021,-0.0014,0.0135,0.0134,0.0133,0.0005,0,0,0,0,0,0,-0.0485,-0.0483,-0.049,-0.0447,-0.0438,-0.0429,-0.0384,-0.0371,-0.0352,-0.0345,-0.0235,-0.0214,-0.0145,-0.0067,-0.0047,-0.0053,-0.0008,0.0135,0.0134,0.0134,0.001,0.0,-0.0008,0,0,0,0,0,-0.0486,-0.0503,-0.0491,-0.0488,-0.045,-0.0431,-0.0422,-0.0375,-0.0353,-0.0349,-0.0275,-0.0218,-0.0057,-0.0061,-0.0037,-0.0042,0.0136,0.0135,0.0134,0.0014,0.0002,-0.0008,0,0,0,0,0,0,-0.0515,-0.0495,-0.048,-0.049,-0.0467,-0.0418,-0.0413,-0.0385,-0.0326,-0.0315,-0.0218,-0.0192,-0.0142,-0.0072,-0.0078,0.0002,0.0047,0.0051,-0.0052,-0.0062,-0.0071,-0.0074,-0.0002,0,0,0,0,0,-0.0529,-0.0536,-0.0507,-0.0515,-0.0508,-0.0463,-0.0449,-0.0422,-0.0369,-0.0343,-0.0272,-0.0192,-0.0128,-0.0081,-0.0017,0.0036,0.0088,0.0047,0.0038,0.003,0.0044,0.0089,0.0084,0.013,0.013,0.013,0,0,-0.0541,-0.0533,-0.0535,-0.0522,-0.0498,-0.0492,-0.0451,-0.044,-0.0426,-0.0327,-0.0283,-0.0225,-0.0125,-0.0077,-0.0046,-0.0015,0.0042,0.0029,0.0021,0.004,0.0087,0.0083,0.0079,0.0129,0.013,0.013,0,0,-0.0573,-0.0565,-0.058,-0.0568,-0.0549,-0.052,-0.0524,-0.0483,-0.0456,-0.0413,-0.0347,-0.0295,-0.0189,-0.0128,-0.008,-0.0095,-0.0019,-0.0077,-0.0108,-0.0067,-0.007,-0.0072,-0.0029,-0.0027,-0.0069,-0.0069,-0.0069,0,-0.0589,-0.0602,-0.0581,-0.059,-0.0582,-0.0539,-0.0546,-0.0516,-0.0457,-0.0433,-0.0413,-0.0284,-0.0212,-0.0145,-0.0151,-0.0116,-0.0077,-0.0081,-0.008,-0.0081,-0.0081,-0.0036,-0.0032,-0.0075,-0.0075,-0.0074,-0.0073,0,-0.0627,-0.0635,-0.0644,-0.0639,-0.0628,-0.063,-0.0593,-0.0575,-0.0541,-0.0501,-0.0447,-0.0362,-0.0278,-0.0261,-0.0202,-0.0168,-0.0138,-0.0113,-0.006,-0.0094,-0.0044,-0.0037,-0.0084,-0.0082,-0.008,-0.0079,0,0,-0.0661,-0.067,-0.0671,-0.0677,-0.0655,-0.065,-0.0635,-0.0603,-0.0585,-0.0535,-0.0502,-0.0417,-0.0374,-0.0317,-0.0254,-0.0212,-0.0194,-0.0164,-0.0159,-0.0133,-0.01,-0.0066,-0.0055,-0.0175,-0.0174,-0.0174,-0.0072,0,-0.0693,-0.0728,-0.0716,-0.0732,-0.0743,-0.0704,-0.0692,-0.0656,-0.0611,-0.057,-0.0495,-0.044,-0.0393,-0.0359,-0.0314,-0.0216,-0.0178,-0.0223,-0.0058,-0.0052,-0.0029,-0.0046,-0.0023,0.0071,-0.0065,-0.0063,-0.0062,0,-0.0729,-0.0747,-0.0779,-0.078,-0.078,-0.0779,-0.0748,-0.0731,-0.0662,-0.0626,-0.0563,-0.0498,-0.0418,-0.0387,-0.0246,-0.0277,-0.0197,-0.0131,-0.0125,-0.0036,-0.0005,0.009,0.009,0.0195,-0.0051,-0.0052,-0.0053,0,-0.0765,-0.0786,-0.0815,-0.0816,-0.0811,-0.0812,-0.08,-0.0748,-0.0728,-0.0658,-0.0629,-0.0532,-0.0471,-0.0371,-0.0226,-0.0236,-0.0074,-0.007,0.0034,0.0038,0.0123,0.0133,0.024,0.0018,0.0017,0.0017,0.0017,0,-0.0804,-0.0824,-0.0836,-0.0852,-0.0876,-0.0854,-0.0855,-0.0826,-0.0776,-0.0745,-0.0661,-0.0607,-0.0465,-0.035,-0.0236,-0.0069,-0.0078,0.0036,0.0069,0.0078,0.0082,0.0233,0.0273,0.0021,0.002,0.0019,0.0019,0,-0.0839,-0.085,-0.0883,-0.0894,-0.0898,-0.0914,-0.0904,-0.0897,-0.0845,-0.08,-0.0781,-0.0652,-0.0499,-0.035,-0.0166,-0.0072,0.0147,0.0133,0.0136,0.0167,0.0342,0.0374,0.054,0.0599,0.0255,0.0256,0.0257,0,-0.086,-0.0885,-0.0919,-0.0943,-0.0952,-0.0968,-0.0977,-0.0939,-0.0922,-0.0818,-0.0796,-0.0645,-0.0517,-0.0239,-0.005,0.0154,0.0233,0.0286,0.0269,0.0365,0.0424,0.0443,0.0481,0.0329,0.0331,0.0332,0.0333,0,-0.0895,-0.0909,-0.0939,-0.0994,-0.1018,-0.1039,-0.1041,-0.1038,-0.0975,-0.0914,-0.0798,-0.0688,-0.0416,-0.0168,0.0089,0.0212,0.0361,0.0321,0.0427,0.0501,0.0525,0.0593,0.0247,0.0346,0.0345,0.0344,0.0343,0.0343,-0.0912,-0.0947,-0.099,-0.1037,-0.107,-0.1093,-0.1095,-0.1071,-0.1027,-0.0909,-0.0805,-0.0607,-0.0272,0.0099,0.0237,0.0516,0.0484,0.0596,0.0629,0.0642,0.0692,0.0371,0.0498,0.0497,0.0497,0.0497,0.0497,0,-0.0932,-0.0975,-0.1028,-0.1081,-0.1116,-0.1122,-0.1121,-0.109,-0.1022,-0.0892,-0.0751,-0.0365,-0.003,0.0274,0.0658,0.0811,0.0837,0.0889,0.0925,0.0951,0.0684,0.0679,0.0843,0.0842,0.0842,0.0842,0.0842,0.0842,-0.0944,-0.1003,-0.1036,-0.1101,-0.1133,-0.1147,-0.1137,-0.1069,-0.0969,-0.0728,-0.0502,-0.033,0.0109,0.071,0.1063,0.1098,0.1214,0.1212,0.1272,0.1088,0.1062,0.1038,0.1044,0.1282,0.1282,0.1528,0.153,0.1532]}],[{"header":{"parameterUnit":"m.s-1","parameterCategory":2,"la1":30.2991,"la2":30.254,"lo1":-89.0895,"lo2":-89.0444,"dy":0.0017,"dx":0.0017,"nx":28,"ny":28,"refTime":"2025-08-30T03:00:00:Z","depth":"2","parameterNumber":2,"parameterNumberName":"U-component_of_CURRENTS"},"data":[0,0,0,0,0,0,0,0,0,0,0,0,0,0,0,0,0,0,0,0,0,0,0,0,0,0,0,0,0,0,0,0,0,0,0,0,0,0,0,0,0,0,0,0,0,0,0,0,0,0,0,0,0,0,0,0,0,0,-0.2122,-0.2123,0,-0.2196,-0.2197,-0.2198,-0.219,-0.2189,-0.2188,-0.2187,-0.2277,-0.228,-0.2284,0,0,0,0,0,0,0,0,0,0,0,0,0,-0.2011,-0.2013,-0.2122,-0.2123,-0.2124,-0.2196,-0.2197,-0.2198,-0.2191,-0.2189,-0.2188,-0.2187,-0.2276,-0.228,-0.2284,0,0,0,0,0,0,0,0,0,0,0,0,0,-0.2069,-0.2014,-0.2122,-0.213,-0.2131,-0.2196,-0.2197,-0.2198,-0.2191,-0.2189,-0.2188,-0.2186,-0.2275,-0.228,-0.2285,-0.2348,0,0,-0.23,-0.2302,0,0,0,0,0,0,0,0,-0.2065,-0.2073,-0.2128,-0.213,-0.2131,-0.2183,-0.2191,-0.2249,-0.2191,-0.2167,-0.2187,-0.2185,-0.2249,-0.2256,-0.2272,-0.2352,-0.2356,-0.2301,-0.2304,-0.2306,-0.2307,0,0,0,0,0,0,0,-0.2061,-0.207,-0.2151,-0.2129,-0.2131,-0.2142,-0.2148,-0.2202,-0.2216,-0.2169,-0.2169,-0.2179,-0.225,-0.2267,-0.2274,-0.2357,-0.23,-0.2305,-0.2308,-0.231,-0.2465,-0.2466,0,0,0,0,0,0,-0.2054,-0.2066,-0.2148,-0.2153,-0.2095,-0.2145,-0.2152,-0.2167,-0.2215,-0.2221,-0.2181,-0.2179,-0.2259,-0.2268,-0.2277,-0.2281,-0.2306,-0.2311,-0.2314,-0.2464,-0.2466,-0.2467,0,0,0,0,0,0,-0.2052,-0.2061,-0.2145,-0.2111,-0.2123,-0.2149,-0.2166,-0.217,-0.2183,-0.2224,-0.2229,-0.2189,-0.2258,-0.227,-0.2323,-0.2287,-0.2313,-0.2318,-0.2463,-0.2465,-0.2466,-0.2336,0,0,0,0,0,0,-0.2048,-0.206,-0.2068,-0.2111,-0.2124,-0.2167,-0.2168,-0.2172,-0.2192,-0.219,-0.2234,-0.224,-0.2258,-0.2315,-0.2328,-0.2294,-0.2321,-0.2462,-0.2464,-0.2466,-0.2339,-0.2333,-0.2328,0,0,0,0,0,-0.2044,-0.2056,-0.2068,-0.2078,-0.2135,-0.2167,-0.2174,-0.2187,-0.2194,-0.2194,-0.2233,-0.2238,-0.2336,-0.2321,-0.2335,-0.2302,-0.2461,-0.2463,-0.2466,-0.2341,-0.2334,-0.2328,0,0,0,0,0,0,-0.2014,-0.2058,-0.2071,-0.2097,-0.2123,-0.2165,-0.2173,-0.2192,-0.2225,-0.2227,-0.2263,-0.2273,-0.2299,-0.2345,-0.2327,-0.236,-0.2396,-0.2402,-0.2297,-0.2291,-0.2285,-0.2264,-0.2326,0,0,0,0,0,-0.2013,-0.203,-0.2073,-0.2093,-0.2107,-0.2145,-0.2161,-0.2173,-0.2211,-0.2222,-0.2252,-0.2295,-0.2326,-0.2342,-0.2383,-0.2416,-0.2423,-0.2407,-0.2401,-0.2396,-0.2394,-0.2368,-0.2357,-0.2475,-0.2475,-0.2475,0,0,-0.2008,-0.2034,-0.2045,-0.2087,-0.2111,-0.2127,-0.2149,-0.2173,-0.2177,-0.2232,-0.2248,-0.228,-0.2335,-0.235,-0.2366,-0.2379,-0.2369,-0.2399,-0.2393,-0.2394,-0.2369,-0.2357,-0.2346,-0.2476,-0.2476,-0.2476,0,0,-0.1998,-0.2029,-0.2036,-0.2058,-0.2093,-0.2116,-0.2123,-0.2163,-0.2167,-0.2203,-0.2228,-0.2236,-0.2313,-0.2308,-0.2326,-0.2329,-0.2342,-0.2357,-0.2301,-0.2274,-0.2262,-0.2252,-0.2236,-0.2226,-0.2348,-0.2348,-0.2348,0,-0.1986,-0.2006,-0.2041,-0.2053,-0.2066,-0.2109,-0.2115,-0.2133,-0.218,-0.2184,-0.2194,-0.2255,-0.2278,-0.2277,-0.2265,-0.2303,-0.2312,-0.2305,-0.2259,-0.2249,-0.2241,-0.2227,-0.2217,-0.2342,-0.2343,-0.2343,-0.2344,0,-0.198,-0.1996,-0.2003,-0.2028,-0.2046,-0.206,-0.209,-0.2103,-0.2121,-0.2135,-0.2143,-0.2169,-0.22,-0.2197,-0.223,-0.219,-0.2222,-0.2247,-0.2254,-0.2219,-0.221,-0.2201,-0.2334,-0.2336,-0.2338,-0.2339,0,0,-0.1949,-0.1989,-0.199,-0.1997,-0.2034,-0.2049,-0.2055,-0.207,-0.2074,-0.2087,-0.208,-0.2087,-0.2098,-0.2122,-0.2143,-0.211,-0.2035,-0.2153,-0.2154,-0.2099,-0.199,-0.1933,-0.1919,-0.2052,-0.205,-0.2049,-0.2,0,-0.193,-0.194,-0.1965,-0.1971,-0.198,-0.2014,-0.2019,-0.2037,-0.2052,-0.2057,-0.205,-0.2062,-0.2072,-0.208,-0.2042,-0.2061,-0.2012,-0.2048,-0.2067,-0.2068,-0.1988,-0.1906,-0.1791,-0.1731,-0.1992,-0.1991,-0.199,0,-0.1907,-0.192,-0.1921,-0.1947,-0.1953,-0.196,-0.1978,-0.1989,-0.2003,-0.2015,-0.2008,-0.203,-0.1995,-0.2007,-0.1964,-0.1996,-0.1978,-0.1971,-0.197,-0.1956,-0.1994,-0.1817,-0.1707,-0.1976,-0.1977,-0.1978,-0.1979,0,-0.1861,-0.1885,-0.1883,-0.1892,-0.1929,-0.193,-0.1947,-0.1969,-0.1979,-0.1987,-0.1996,-0.1975,-0.1972,-0.1941,-0.1931,-0.1952,-0.1882,-0.1911,-0.1832,-0.1829,-0.1755,-0.1747,-0.1844,-0.1844,-0.1845,-0.1845,-0.1845,0,-0.1826,-0.1824,-0.1862,-0.1862,-0.1861,-0.1898,-0.1899,-0.1919,-0.1943,-0.1944,-0.1969,-0.1961,-0.1956,-0.1931,-0.1913,-0.184,-0.1861,-0.1796,-0.1796,-0.1709,-0.1699,-0.1947,-0.196,-0.1843,-0.1843,-0.1844,-0.1844,0,-0.1768,-0.1796,-0.1796,-0.183,-0.1839,-0.1837,-0.1874,-0.1878,-0.1914,-0.1916,-0.1919,-0.1942,-0.1905,-0.1889,-0.1843,-0.1809,-0.1754,-0.1721,-0.1622,-0.161,-0.1727,-0.1734,-0.1619,-0.1616,-0.1614,-0.1612,-0.161,0,-0.1735,-0.173,-0.1761,-0.1763,-0.1775,-0.1788,-0.1797,-0.1846,-0.1855,-0.1896,-0.1887,-0.1875,-0.1835,-0.1753,-0.1687,-0.1612,-0.1677,-0.1469,-0.1463,-0.1682,-0.1695,-0.1707,-0.1717,-0.132,-0.1316,-0.1313,-0.131,0,-0.1668,-0.1681,-0.1685,-0.1692,-0.17,-0.1709,-0.1728,-0.1734,-0.1788,-0.1794,-0.1787,-0.176,-0.1695,-0.156,-0.1475,-0.1421,-0.1473,-0.14,-0.1629,-0.1398,-0.1396,-0.1411,-0.1431,-0.1282,-0.1284,-0.1287,-0.1288,-0.1289,-0.1609,-0.1597,-0.1606,-0.16,-0.1615,-0.1607,-0.1577,-0.1612,-0.1605,-0.1586,-0.1641,-0.1563,-0.153,-0.1331,-0.1241,-0.1173,-0.1276,-0.1224,-0.1236,-0.125,-0.1227,-0.1221,-0.107,-0.1071,-0.1073,-0.1074,-0.1075,0,-0.1521,-0.1516,-0.1513,-0.1499,-0.1471,-0.1512,-0.1508,-0.1459,-0.1411,-0.1427,-0.1399,-0.124,-0.1141,-0.1111,-0.0961,-0.0917,-0.0919,-0.0876,-0.0891,-0.092,-0.0945,-0.0908,-0.0666,-0.0664,-0.0663,-0.0662,0,0,-0.1474,-0.1433,-0.1429,-0.1347,-0.1339,-0.1259,-0.1231,-0.1184,-0.1166,-0.1088,-0.1053,-0.1118,-0.111,-0.0912,-0.0841,-0.0735,-0.0823,-0.0692,-0.1023,-0.1072,-0.1097,-0.1147,-0.1122,0,0,0,0,0]},{"header":{"parameterUnit":"m.s-1","parameterCategory":2,"la1":30.2991,"la2":30.254,"lo1":-89.0895,"lo2":-89.0444,"dy":0.0017,"dx":0.0017,"nx":28,"ny":28,"refTime":"2025-08-30T03:00:00:Z","depth":"2","parameterNumber":3,"parameterNumberName":"V-component_of_CURRENTS"},"data":[0,0,0,0,0,0,0,0,0,0,0,0,0,0,0,0,0,0,0,0,0,0,0,0,0,0,0,0,0,0,0,0,0,0,0,0,0,0,0,0,0,0,0,0,0,0,0,0,0,0,0,0,0,0,0,0,0,0,-0.0397,-0.0396,0,-0.032,-0.0319,-0.0317,-0.0239,-0.0239,-0.0238,-0.0238,-0.0066,-0.0062,-0.0058,0,0,0,0,0,0,0,0,0,0,0,0,0,-0.0413,-0.0413,-0.0397,-0.0396,-0.0396,-0.032,-0.0318,-0.0317,-0.024,-0.0239,-0.0238,-0.0237,-0.0067,-0.0062,-0.0058,0,0,0,0,0,0,0,0,0,0,0,0,0,-0.0374,-0.0413,-0.0397,-0.0351,-0.0347,-0.032,-0.0318,-0.0317,-0.024,-0.0239,-0.0238,-0.0237,-0.0069,-0.0063,-0.0057,-0.004,0,0,-0.0039,-0.0036,0,0,0,0,0,0,0,0,-0.0376,-0.0373,-0.0358,-0.0354,-0.0349,-0.0292,-0.0261,-0.0221,-0.024,-0.0276,-0.0238,-0.0236,-0.0136,-0.0125,-0.0108,-0.0032,-0.0025,-0.0038,-0.0035,-0.0032,-0.003,0,0,0,0,0,0,0,-0.0379,-0.0376,-0.0362,-0.0358,-0.0352,-0.0313,-0.0306,-0.0253,-0.0207,-0.0273,-0.0268,-0.0266,-0.0132,-0.0114,-0.0103,-0.0022,-0.0038,-0.0033,-0.003,-0.0027,0.0096,0.0096,0,0,0,0,0,0,-0.0402,-0.0379,-0.0365,-0.036,-0.0365,-0.0314,-0.0306,-0.0308,-0.021,-0.0196,-0.0267,-0.0263,-0.0124,-0.011,-0.0096,-0.0065,-0.0032,-0.0027,-0.0023,0.0096,0.0096,0.0096,0,0,0,0,0,0,-0.0403,-0.0402,-0.0368,-0.0371,-0.0364,-0.0316,-0.0317,-0.0307,-0.0288,-0.0208,-0.0191,-0.026,-0.0123,-0.0105,-0.0053,-0.0058,-0.0024,-0.0019,0.0097,0.0096,0.0096,-0.0005,0,0,0,0,0,0,-0.0404,-0.0402,-0.0409,-0.0373,-0.0365,-0.036,-0.0318,-0.0306,-0.0291,-0.0284,-0.0195,-0.0179,-0.0121,-0.0062,-0.0047,-0.0049,-0.0014,0.0097,0.0096,0.0096,-0.0002,-0.0009,-0.0016,0,0,0,0,0,-0.0404,-0.0422,-0.041,-0.0408,-0.0377,-0.0362,-0.0354,-0.0312,-0.0292,-0.029,-0.0229,-0.0181,-0.0055,-0.0058,-0.004,-0.004,0.0097,0.0097,0.0096,0.0001,-0.0008,-0.0015,0,0,0,0,0,0,-0.043,-0.0415,-0.0401,-0.0412,-0.0393,-0.035,-0.0347,-0.0322,-0.0274,-0.0264,-0.0185,-0.0164,-0.0124,-0.0068,-0.0074,-0.0006,0.0029,0.0032,-0.0049,-0.0057,-0.0064,-0.0063,-0.0009,0,0,0,0,0,-0.0443,-0.0451,-0.0427,-0.0436,-0.0431,-0.0391,-0.0379,-0.0355,-0.0312,-0.029,-0.0232,-0.0166,-0.0114,-0.0076,-0.0025,0.0016,0.0064,0.0029,0.0021,0.0015,0.0028,0.0078,0.0076,0.0093,0.0094,0.0094,0,0,-0.0455,-0.0449,-0.0452,-0.0442,-0.0422,-0.0417,-0.038,-0.0372,-0.036,-0.0278,-0.0242,-0.0194,-0.0112,-0.0072,-0.0047,-0.0022,0.0032,0.0014,0.0008,0.0026,0.0077,0.0076,0.0074,0.0093,0.0093,0.0093,0,0,-0.0486,-0.048,-0.0495,-0.0485,-0.0469,-0.0444,-0.0447,-0.0412,-0.0387,-0.0355,-0.0296,-0.0251,-0.0168,-0.0112,-0.0071,-0.0083,-0.0017,-0.007,-0.009,-0.0043,-0.0044,-0.0044,-0.0007,-0.0003,-0.0062,-0.0062,-0.0062,0,-0.05,-0.0514,-0.0496,-0.0505,-0.0498,-0.0461,-0.0467,-0.044,-0.0392,-0.0369,-0.0354,-0.0243,-0.0184,-0.0121,-0.0125,-0.0099,-0.0063,-0.0069,-0.0054,-0.0052,-0.0051,-0.0012,-0.0006,-0.0067,-0.0066,-0.0066,-0.0065,0,-0.0536,-0.0544,-0.0554,-0.0549,-0.0541,-0.0543,-0.051,-0.0494,-0.0464,-0.0427,-0.0376,-0.0304,-0.023,-0.0215,-0.0167,-0.0126,-0.0104,-0.0082,-0.0037,-0.0059,-0.0016,-0.0009,-0.0074,-0.0072,-0.0071,-0.0069,0,0,-0.0569,-0.0578,-0.0579,-0.0582,-0.0564,-0.056,-0.0546,-0.0514,-0.0494,-0.0451,-0.0416,-0.034,-0.0301,-0.0252,-0.0198,-0.0152,-0.0125,-0.0114,-0.0109,-0.0085,-0.0027,-0.0008,0.0003,-0.0103,-0.0102,-0.0101,-0.001,0,-0.0597,-0.0629,-0.0618,-0.0632,-0.0641,-0.0605,-0.0593,-0.0559,-0.0517,-0.0476,-0.0404,-0.0354,-0.0315,-0.0284,-0.0235,-0.0148,-0.0105,-0.0151,0.0001,0.0005,0.0018,0.0013,0.0003,0.0084,-0.0001,0.0,0.0001,0,-0.063,-0.0646,-0.0674,-0.0671,-0.0671,-0.0671,-0.0638,-0.0621,-0.0554,-0.052,-0.0458,-0.0398,-0.0319,-0.0293,-0.0156,-0.0189,-0.0113,-0.0052,-0.0047,0.002,0.004,0.0099,0.0103,0.0015,0.0014,0.0013,0.0012,0,-0.0661,-0.0678,-0.0703,-0.0704,-0.0698,-0.0697,-0.0685,-0.0635,-0.0615,-0.0544,-0.0517,-0.042,-0.0366,-0.0265,-0.0136,-0.0144,0.001,0.0017,0.0105,0.0107,0.0156,0.016,0.0111,0.0111,0.0111,0.011,0.011,0,-0.0694,-0.071,-0.0722,-0.0736,-0.0756,-0.0734,-0.0733,-0.0705,-0.0656,-0.0626,-0.0542,-0.0492,-0.0356,-0.025,-0.0142,0.0009,0.0009,0.0109,0.0137,0.0118,0.0118,0.011,0.0109,0.0114,0.0113,0.0112,0.0112,0,-0.0725,-0.0734,-0.0762,-0.0771,-0.0776,-0.0789,-0.078,-0.0772,-0.0721,-0.0679,-0.066,-0.0539,-0.0399,-0.0258,-0.0082,0.0005,0.0143,0.0196,0.0159,0.0181,0.0207,0.0199,0.03,0.0301,0.0302,0.0304,0.0304,0,-0.0742,-0.0764,-0.0796,-0.0818,-0.0827,-0.0841,-0.085,-0.0813,-0.0796,-0.07,-0.0679,-0.0542,-0.0427,-0.0169,0.0005,0.0195,0.0193,0.0289,0.0276,0.0212,0.0229,0.0219,0.021,0.0295,0.0295,0.0296,0.0296,0,-0.0772,-0.0787,-0.0812,-0.0866,-0.089,-0.0908,-0.0912,-0.0909,-0.085,-0.0794,-0.0691,-0.0592,-0.0346,-0.0132,0.0104,0.0214,0.0254,0.0307,0.0271,0.0241,0.0213,0.0227,0.0218,0.0302,0.0302,0.0301,0.0301,0.0301,-0.0788,-0.082,-0.0861,-0.0907,-0.0939,-0.0962,-0.0965,-0.0944,-0.0904,-0.0798,-0.0706,-0.0527,-0.0334,0.0014,0.0179,0.0331,0.0324,0.0368,0.0363,0.0359,0.0335,0.031,0.0413,0.0413,0.0413,0.0413,0.0413,0,-0.0807,-0.0848,-0.0897,-0.0949,-0.0984,-0.0992,-0.0992,-0.0963,-0.0904,-0.0787,-0.0661,-0.042,-0.0179,0.0022,0.0267,0.0406,0.0392,0.0428,0.0383,0.0377,0.0372,0.0346,0.0429,0.0429,0.0429,0.0429,0,0,-0.082,-0.0875,-0.0905,-0.097,-0.1003,-0.1022,-0.1015,-0.0951,-0.0858,-0.072,-0.058,-0.0407,-0.0164,0.001,0.0188,0.0316,0.0309,0.0329,0.0305,0.0225,0.0218,0.0329,0.0282,0,0,0,0,0]}],[{"header":{"parameterUnit":"m.s-1","parameterCategory":2,"la1":30.2991,"la2":30.254,"lo1":-89.0895,"lo2":-89.0444,"dy":0.0017,"dx":0.0017,"nx":28,"ny":28,"refTime":"2025-08-30T03:00:00:Z","depth":"4","parameterNumber":2,"parameterNumberName":"U-component_of_CURRENTS"},"data":[0,0,0,0,0,0,0,0,0,0,0,0,0,0,0,0,0,0,0,0,0,0,0,0,0,0,0,0,0,0,0,0,0,0,0,0,0,0,0,0,0,0,0,0,0,0,0,0,0,0,0,0,0,0,0,0,0,0,-0.1514,-0.1515,0,-0.1602,-0.1603,-0.1603,-0.1644,-0.1644,-0.1644,-0.1644,-0.1603,-0.1602,-0.1601,0,0,0,0,0,0,0,0,0,0,0,0,0,-0.1391,-0.1393,-0.1513,-0.1515,-0.1516,-0.1602,-0.1603,-0.1603,-0.1644,-0.1644,-0.1644,-0.1644,-0.1603,-0.1602,-0.1601,0,0,0,0,0,0,0,0,0,0,0,0,0,-0.1456,-0.1394,-0.1513,-0.1548,-0.1553,-0.1601,-0.1603,-0.1604,-0.1644,-0.1644,-0.1644,-0.1644,-0.1604,-0.1602,-0.16,-0.1584,0,0,-0.1595,-0.1594,0,0,0,0,0,0,0,0,-0.1452,-0.146,-0.1542,-0.1546,-0.1551,-0.1614,-0.1545,-0.1592,-0.1644,-0.1606,-0.1644,-0.1645,-0.1596,-0.1595,-0.1609,-0.1582,-0.158,-0.1594,-0.1593,-0.1592,-0.1592,0,0,0,0,0,0,0,-0.1448,-0.1457,-0.1546,-0.1543,-0.1549,-0.1564,-0.1573,-0.1554,-0.1594,-0.161,-0.1614,-0.1627,-0.1598,-0.1611,-0.1608,-0.158,-0.1594,-0.1593,-0.1592,-0.1591,-0.1584,-0.1585,0,0,0,0,0,0,-0.1441,-0.1452,-0.1543,-0.1549,-0.1504,-0.1566,-0.1576,-0.1592,-0.1598,-0.1601,-0.1627,-0.1629,-0.1614,-0.161,-0.1607,-0.163,-0.1592,-0.1591,-0.159,-0.1583,-0.1584,-0.1585,0,0,0,0,0,0,-0.1438,-0.1449,-0.1539,-0.1504,-0.1517,-0.1568,-0.1585,-0.1593,-0.1632,-0.1613,-0.1613,-0.1661,-0.1614,-0.1609,-0.1605,-0.1627,-0.159,-0.1588,-0.1582,-0.1584,-0.1585,-0.1649,0,0,0,0,0,0,-0.1435,-0.1447,-0.1467,-0.1504,-0.1519,-0.1575,-0.1585,-0.1595,-0.164,-0.1644,-0.1641,-0.1636,-0.1614,-0.1608,-0.1603,-0.1624,-0.1587,-0.1581,-0.1583,-0.1584,-0.1646,-0.1653,-0.1658,0,0,0,0,0,-0.143,-0.1449,-0.1467,-0.1479,-0.1541,-0.1576,-0.1585,-0.162,-0.1642,-0.1657,-0.1656,-0.1638,-0.1616,-0.1607,-0.1601,-0.1622,-0.158,-0.1582,-0.1584,-0.1643,-0.1651,-0.1658,0,0,0,0,0,0,-0.141,-0.1456,-0.1477,-0.1511,-0.1547,-0.1584,-0.1609,-0.1636,-0.1654,-0.1661,-0.1643,-0.1638,-0.1647,-0.1623,-0.1614,-0.1626,-0.1597,-0.1598,-0.1644,-0.1652,-0.1658,-0.1634,-0.1585,0,0,0,0,0,-0.1414,-0.144,-0.1484,-0.1514,-0.1534,-0.1578,-0.1604,-0.1629,-0.1647,-0.1659,-0.166,-0.1656,-0.1648,-0.1642,-0.1631,-0.163,-0.1598,-0.1642,-0.1648,-0.1654,-0.1631,-0.1612,-0.1614,-0.1592,-0.1592,-0.1592,0,0,-0.1418,-0.1446,-0.1464,-0.1512,-0.1545,-0.1569,-0.1594,-0.1637,-0.1659,-0.1646,-0.1676,-0.1679,-0.1655,-0.166,-0.1662,-0.1643,-0.1648,-0.1656,-0.1661,-0.1635,-0.1615,-0.1616,-0.1618,-0.1594,-0.1594,-0.1593,0,0,-0.1421,-0.1462,-0.1479,-0.1508,-0.1559,-0.1583,-0.1601,-0.1652,-0.1677,-0.1702,-0.1704,-0.1713,-0.1711,-0.1696,-0.1686,-0.1716,-0.1686,-0.1731,-0.1737,-0.172,-0.1721,-0.1722,-0.1702,-0.17,-0.1729,-0.1729,-0.173,0,-0.1424,-0.1452,-0.149,-0.1511,-0.1537,-0.1589,-0.1611,-0.1641,-0.1686,-0.1698,-0.1714,-0.1728,-0.1719,-0.171,-0.1729,-0.1728,-0.1715,-0.1713,-0.1727,-0.1727,-0.1726,-0.1705,-0.1702,-0.1733,-0.1732,-0.1732,-0.1732,0,-0.1428,-0.1462,-0.1476,-0.1516,-0.1546,-0.1577,-0.1619,-0.1655,-0.1697,-0.1721,-0.1746,-0.1746,-0.1745,-0.1763,-0.1754,-0.1755,-0.1748,-0.1744,-0.1707,-0.1732,-0.1709,-0.1705,-0.1738,-0.1736,-0.1735,-0.1735,0,0,-0.1404,-0.1466,-0.1474,-0.1496,-0.1554,-0.1578,-0.1613,-0.1651,-0.1675,-0.172,-0.1739,-0.1751,-0.1768,-0.1756,-0.1763,-0.1754,-0.1758,-0.1754,-0.1752,-0.173,-0.1724,-0.1621,-0.1606,-0.1766,-0.1765,-0.1765,-0.1716,0,-0.1398,-0.1433,-0.1466,-0.1505,-0.1527,-0.1579,-0.1605,-0.1646,-0.1685,-0.1716,-0.1729,-0.1748,-0.176,-0.1775,-0.1769,-0.1763,-0.1747,-0.1771,-0.1703,-0.17,-0.1603,-0.1597,-0.1762,-0.1712,-0.1711,-0.171,-0.171,0,-0.1384,-0.1412,-0.1447,-0.1502,-0.1517,-0.1547,-0.16,-0.1631,-0.1674,-0.1703,-0.1723,-0.1742,-0.1743,-0.1754,-0.173,-0.1752,-0.1734,-0.1725,-0.1723,-0.159,-0.1587,-0.1676,-0.1701,-0.1702,-0.1703,-0.1703,-0.1704,0,-0.1337,-0.1395,-0.1424,-0.1445,-0.1513,-0.1539,-0.1577,-0.1628,-0.1654,-0.1695,-0.1716,-0.1723,-0.1733,-0.1715,-0.1706,-0.1723,-0.1671,-0.1687,-0.1569,-0.1563,-0.1644,-0.1643,-0.1646,-0.1646,-0.1646,-0.1646,-0.1646,0,-0.1303,-0.133,-0.1411,-0.1426,-0.1462,-0.1519,-0.1557,-0.1595,-0.1644,-0.1658,-0.1706,-0.1705,-0.1726,-0.1708,-0.1694,-0.1607,-0.1654,-0.1547,-0.1532,-0.1676,-0.168,-0.1642,-0.1642,-0.1644,-0.1645,-0.1645,-0.1645,0,-0.1241,-0.1297,-0.1335,-0.1415,-0.1442,-0.1468,-0.1545,-0.1564,-0.1624,-0.1642,-0.1655,-0.1691,-0.1659,-0.1658,-0.1624,-0.1573,-0.1514,-0.1471,-0.1617,-0.1615,-0.1423,-0.1428,-0.1325,-0.1321,-0.1317,-0.1314,-0.1311,0,-0.1208,-0.1225,-0.1316,-0.1342,-0.1381,-0.1435,-0.1465,-0.1541,-0.1557,-0.1614,-0.1605,-0.1607,-0.1614,-0.147,-0.1491,-0.1423,-0.1411,-0.1372,-0.1395,-0.1389,-0.1385,-0.1396,-0.1405,-0.1306,-0.1305,-0.1304,-0.1303,0,-0.1143,-0.1189,-0.1223,-0.1275,-0.1318,-0.1354,-0.1403,-0.1404,-0.1475,-0.1549,-0.1501,-0.1468,-0.1425,-0.1386,-0.1336,-0.1298,-0.1394,-0.1334,-0.1342,-0.1363,-0.1364,-0.1367,-0.138,-0.129,-0.1292,-0.1293,-0.1294,0,-0.1095,-0.1104,-0.1156,-0.1186,-0.1242,-0.1245,-0.1286,-0.1294,-0.1317,-0.1386,-0.1365,-0.1369,-0.1407,-0.132,-0.1279,-0.1223,-0.1209,-0.1173,-0.1189,-0.1203,-0.1185,-0.117,-0.0999,0,0,0,0,0,-0.1037,-0.1033,-0.106,-0.1085,-0.1136,-0.116,-0.1229,-0.1271,-0.1345,-0.1273,-0.1314,-0.1267,-0.1198,-0.1206,-0.1119,-0.1223,-0.1216,-0.1118,-0.1185,-0.122,-0.1235,-0.1224,0,0,0,0,0,0,-0.0998,-0.102,-0.1023,-0.099,-0.0987,-0.1022,-0.1058,-0.1111,-0.1079,-0.116,-0.1125,-0.1186,-0.1135,-0.1217,-0.1089,-0.109,-0.1105,-0.1132,-0.1128,-0.1212,-0.1225,-0.1237,-0.1231,0,0,0,0,0]},{"header":{"parameterUnit":"m.s-1","parameterCategory":2,"la1":30.2991,"la2":30.254,"lo1":-89.0895,"lo2":-89.0444,"dy":0.0017,"dx":0.0017,"nx":28,"ny":28,"refTime":"2025-08-30T03:00:00:Z","depth":"4","parameterNumber":3,"parameterNumberName":"V-component_of_CURRENTS"},"data":[0,0,0,0,0,0,0,0,0,0,0,0,0,0,0,0,0,0,0,0,0,0,0,0,0,0,0,0,0,0,0,0,0,0,0,0,0,0,0,0,0,0,0,0,0,0,0,0,0,0,0,0,0,0,0,0,0,0,-0.0293,-0.0293,0,-0.0249,-0.0248,-0.0247,-0.0196,-0.0196,-0.0196,-0.0195,-0.0125,-0.0124,-0.0123,0,0,0,0,0,0,0,0,0,0,0,0,0,-0.029,-0.0291,-0.0293,-0.0293,-0.0293,-0.0249,-0.0248,-0.0247,-0.0197,-0.0196,-0.0195,-0.0195,-0.0126,-0.0124,-0.0122,0,0,0,0,0,0,0,0,0,0,0,0,0,-0.027,-0.0291,-0.0293,-0.0265,-0.0262,-0.0249,-0.0248,-0.0247,-0.0197,-0.0196,-0.0195,-0.0195,-0.0126,-0.0124,-0.0122,-0.0123,0,0,-0.0116,-0.0115,0,0,0,0,0,0,0,0,-0.0272,-0.027,-0.0269,-0.0267,-0.0263,-0.023,-0.0221,-0.0205,-0.0197,-0.0218,-0.0195,-0.0194,-0.0161,-0.0156,-0.0145,-0.012,-0.0117,-0.0116,-0.0114,-0.0113,-0.0113,0,0,0,0,0,0,0,-0.0273,-0.0272,-0.0272,-0.0269,-0.0266,-0.0239,-0.0235,-0.0218,-0.0191,-0.0216,-0.0213,-0.0213,-0.0158,-0.0147,-0.0143,-0.0116,-0.0116,-0.0114,-0.0112,-0.0112,-0.0082,-0.0083,0,0,0,0,0,0,-0.0288,-0.0273,-0.0274,-0.0271,-0.0269,-0.024,-0.0236,-0.0239,-0.0192,-0.0185,-0.0214,-0.0211,-0.0151,-0.0145,-0.014,-0.0128,-0.0113,-0.0111,-0.011,-0.0082,-0.0082,-0.0083,0,0,0,0,0,0,-0.0288,-0.0289,-0.0276,-0.0273,-0.027,-0.0241,-0.0245,-0.0239,-0.023,-0.0191,-0.0183,-0.0213,-0.015,-0.0143,-0.0125,-0.0125,-0.011,-0.0108,-0.0081,-0.0082,-0.0083,-0.011,0,0,0,0,0,0,-0.0289,-0.0289,-0.0298,-0.0275,-0.0271,-0.0276,-0.0246,-0.0238,-0.0233,-0.0229,-0.0188,-0.018,-0.0149,-0.0129,-0.0123,-0.0122,-0.0107,-0.008,-0.0081,-0.0082,-0.0109,-0.0112,-0.0115,0,0,0,0,0,-0.0289,-0.0305,-0.0299,-0.0299,-0.0284,-0.0277,-0.0273,-0.0247,-0.0234,-0.0235,-0.0204,-0.0181,-0.0131,-0.0128,-0.0121,-0.0119,-0.008,-0.0081,-0.0082,-0.0108,-0.0111,-0.0115,0,0,0,0,0,0,-0.0307,-0.0301,-0.0293,-0.0307,-0.0297,-0.027,-0.0272,-0.0256,-0.0233,-0.0229,-0.0187,-0.0177,-0.0162,-0.0143,-0.014,-0.0115,-0.0102,-0.0102,-0.0124,-0.0127,-0.013,-0.0127,-0.0105,0,0,0,0,0,-0.0318,-0.0329,-0.0315,-0.0327,-0.0325,-0.0301,-0.0296,-0.0281,-0.0259,-0.0247,-0.0219,-0.019,-0.0162,-0.0147,-0.0125,-0.0113,-0.0082,-0.0109,-0.0112,-0.0114,-0.0109,-0.0059,-0.0056,-0.0086,-0.0086,-0.0086,0,0,-0.0329,-0.0328,-0.0333,-0.0332,-0.0321,-0.0321,-0.0295,-0.0295,-0.0289,-0.0245,-0.023,-0.0202,-0.0163,-0.0144,-0.0136,-0.0126,-0.0093,-0.0116,-0.0118,-0.0111,-0.0059,-0.0056,-0.0053,-0.0087,-0.0087,-0.0087,0,0,-0.0354,-0.0355,-0.037,-0.0366,-0.0361,-0.0345,-0.035,-0.033,-0.0314,-0.0302,-0.0263,-0.0233,-0.0205,-0.0163,-0.0141,-0.015,-0.0113,-0.0153,-0.0158,-0.011,-0.0107,-0.0103,-0.0073,-0.0066,-0.015,-0.015,-0.015,0,-0.0367,-0.0381,-0.0373,-0.0383,-0.0381,-0.0359,-0.0367,-0.0351,-0.0326,-0.031,-0.0305,-0.024,-0.0208,-0.0161,-0.0161,-0.0153,-0.0129,-0.0146,-0.0112,-0.0108,-0.0104,-0.0073,-0.0065,-0.0152,-0.0152,-0.0151,-0.0151,0,-0.0396,-0.0407,-0.0417,-0.042,-0.0418,-0.0424,-0.0403,-0.0396,-0.0378,-0.0351,-0.0315,-0.0269,-0.0224,-0.0212,-0.0186,-0.0143,-0.0137,-0.0123,-0.01,-0.0102,-0.007,-0.0062,-0.0154,-0.0153,-0.0153,-0.0152,0,0,-0.0418,-0.0434,-0.0437,-0.0442,-0.0437,-0.0437,-0.0431,-0.0409,-0.0395,-0.0366,-0.0337,-0.0283,-0.0252,-0.0225,-0.0187,-0.0142,-0.0094,-0.0124,-0.0121,-0.0089,0.0,-0.0015,-0.0007,-0.0074,-0.0073,-0.0071,0.0006,0,-0.044,-0.047,-0.0467,-0.0484,-0.0493,-0.0472,-0.0466,-0.0443,-0.0414,-0.0383,-0.0323,-0.0287,-0.0259,-0.0236,-0.0186,-0.0118,-0.0071,-0.0117,-0.0007,-0.0004,-0.0012,0.0002,-0.0067,0.0013,0.0015,0.0016,0.0017,0,-0.0462,-0.0479,-0.0507,-0.0512,-0.0513,-0.0521,-0.0499,-0.049,-0.0437,-0.0412,-0.036,-0.0315,-0.0244,-0.0224,-0.0102,-0.0136,-0.0069,-0.0017,-0.0012,-0.0007,-0.0003,0.0019,0.0033,0.0032,0.0031,0.003,0.0029,0,-0.0478,-0.0501,-0.0525,-0.053,-0.0534,-0.054,-0.0537,-0.05,-0.0487,-0.043,-0.0408,-0.0322,-0.0281,-0.0186,-0.0084,-0.0089,0.0047,0.0055,0.0105,0.0104,0.0108,0.0103,0.015,0.0149,0.0149,0.0149,0.0149,0,-0.0494,-0.0513,-0.054,-0.0554,-0.0577,-0.0568,-0.0574,-0.0554,-0.0519,-0.0497,-0.0428,-0.0387,-0.0268,-0.0179,-0.0085,0.003,0.0049,0.0111,0.013,0.009,0.0083,0.0113,0.0108,0.0152,0.0151,0.0151,0.015,0,-0.0505,-0.0524,-0.0555,-0.0578,-0.0589,-0.0606,-0.0616,-0.0611,-0.0576,-0.0544,-0.0529,-0.0431,-0.0317,-0.0198,-0.0042,0.0022,0.0138,0.0177,0.0116,0.0129,0.0162,0.0155,0.0241,0.0241,0.0241,0.0241,0.0242,0,-0.051,-0.0531,-0.0581,-0.0608,-0.0625,-0.065,-0.0666,-0.0646,-0.0634,-0.0566,-0.0547,-0.0441,-0.0364,-0.0156,-0.0037,0.0135,0.0161,0.021,0.0199,0.0166,0.0175,0.0167,0.0159,0.0242,0.0242,0.0242,0.0242,0,-0.0517,-0.0545,-0.0573,-0.0636,-0.0671,-0.0697,-0.0713,-0.0708,-0.067,-0.0642,-0.0544,-0.0432,-0.0305,-0.0153,-0.0024,0.0102,0.017,0.0213,0.0213,0.0204,0.0168,0.0176,0.0168,0.0243,0.0243,0.0243,0.0243,0,-0.0524,-0.0552,-0.0603,-0.0651,-0.0701,-0.0727,-0.0733,-0.0707,-0.0687,-0.0605,-0.0574,-0.0429,-0.0344,-0.0169,-0.0047,0.0067,0.0097,0.0128,0.0134,0.0134,0.0076,0.0013,0.0064,0,0,0,0,0,-0.0524,-0.0561,-0.0612,-0.0666,-0.0716,-0.0741,-0.0755,-0.0748,-0.0713,-0.0645,-0.0604,-0.0478,-0.0285,-0.0199,-0.0084,-0.0056,0.0101,0.0079,0.0136,0.0247,0.0246,0.0193,0,0,0,0,0,0,-0.0527,-0.058,-0.061,-0.0667,-0.0704,-0.0749,-0.0759,-0.0737,-0.0687,-0.0637,-0.0529,-0.0462,-0.0273,-0.0348,-0.0084,-0.005,-0.0002,0.0174,0.0176,0.0247,0.0247,0.0246,0.0192,0,0,0,0,0]}]]